Location: Unspecified
(48.8656°N, 0.0000°E)
Time: 14:24:44
(UTC+00:00)

Tiangong 2 - Pass Details

Date: 21 May 2019
Orbit: 376 x 388 km, 42.8° (Epoch: 26 June)

Event Time Altitude Azimuth Distance (km) Brightness Sun altitude
Rises 21:32:26 0° 243° (WSW) 2,231 5.0 -13.8°
Reaches altitude 10° 21:34:42 10° 230° (SW) 1,381 3.8 -14.0°
Enters shadow 21:36:47 23° 190° (S) 848 2.4 -14.2°
